カタログに戻る

SL-16 DEB

運用中SSO
NORAD 25863·DEBRIS·🇷🇺 Russia

打ち上げ Jul 17, 1999 から Baikonur Cosmodrome

Loading…

次のパス (今後24時間)

TLE

最新Source: Space-Track

元期: Sep 14, 2026, 03:14 UTC

1 25863U 99039D   26257.13516507  .00000331  00000-0  92690-4 0  9991
2 25863  98.3571 326.6892 0145832 291.9356  96.2056 14.46865621427962

AllMySatでSL-16 DEBをリアルタイム追跡

Download on the App Store